{"data":{"norad_id":67707,"epoch":"2026-09-19T13:00:50.495040Z","epoch_age_seconds":151676,"freshness":"FRESH","line1":"1 67707U 26025Q   26262.54225110  .00026262  00000+0  81269-3 0  9996","line2":"2 67707  97.2861  12.5277 0000575  91.5144 268.6165 15.33456624 35727","mean_motion":15.33456624,"eccentricity":5.75e-5,"inclination_deg":97.2861,"raan_deg":12.5277,"arg_perigee_deg":91.5144,"mean_anomaly_deg":268.6165,"bstar":0.00081269,"rev_number":3572,"period_min":93.905492823382,"perigee_km":465.11508022936,"apogee_km":465.9020994722,"semimajor_km":6843.6455898508,"source":"CELESTRAK","updated_at":"2026-09-20T09:00:43.653848Z"}}